Time,TemperatureF,DewpointF,PressureIn,WindDirection,WindDirectionDegrees,WindSpeedMPH,WindSpeedGustMPH,Humidity,HourlyPrecipIn,Conditions,Clouds,dailyrainin,SoftwareType,DateUTC
2013-03-04 00:13:00,35.5,28.0,30.10,ENE,74,0.0,2.0,74,0.00,,,0.00,weatherlink.com 1.10,2013-03-04 06:13:00,
2013-03-04 00:28:00,35.4,28.0,30.11,ENE,74,0.0,1.0,75,0.00,,,0.00,weatherlink.com 1.10,2013-03-04 06:28:00,
2013-03-04 00:43:00,35.2,28.0,30.11,ENE,74,0.0,1.0,75,0.00,,,0.00,weatherlink.com 1.10,2013-03-04 06:43:00,
2013-03-04 00:58:00,35.1,28.0,30.11,ENE,74,0.0,1.0,74,0.00,,,0.00,weatherlink.com 1.10,2013-03-04 06:58:00,
2013-03-04 01:13:00,35.1,28.0,30.11,ENE,74,0.0,1.0,75,0.00,,,0.00,weatherlink.com 1.10,2013-03-04 07:13:00,
2013-03-04 01:28:00,35.1,28.0,30.12,ENE,74,0.0,0.0,74,0.00,,,0.00,weatherlink.com 1.10,2013-03-04 07:28:00,
2013-03-04 01:43:00,35.2,28.0,30.11,ENE,74,0.0,0.0,76,0.00,,,0.00,weatherlink.com 1.10,2013-03-04 07:43:00,
2013-03-04 01:58:00,35.1,28.0,30.10,ENE,76,0.0,1.0,76,0.00,,,0.00,weatherlink.com 1.10,2013-03-04 07:58:00,
2013-03-04 02:13:00,35.3,26.0,30.09,ENE,76,1.0,2.0,70,0.00,,,0.00,weatherlink.com 1.10,2013-03-04 08:13:00,
2013-03-04 02:28:00,35.7,26.0,30.09,ENE,67,1.0,5.0,69,0.00,,,0.00,weatherlink.com 1.10,2013-03-04 08:28:00,
2013-03-04 02:43:00,35.8,26.0,30.08,ENE,76,0.0,4.0,68,0.00,,,0.00,weatherlink.com 1.10,2013-03-04 08:43:00,
2013-03-04 02:58:00,35.8,26.0,30.09,NE,44,0.0,2.0,68,0.00,,,0.00,weatherlink.com 1.10,2013-03-04 08:58:00,
2013-03-04 03:13:00,35.9,25.0,30.08,ENE,76,3.0,5.0,66,0.00,,,0.00,weatherlink.com 1.10,2013-03-04 09:13:00,
2013-03-04 03:28:00,35.9,26.0,30.07,East,95,2.0,4.0,67,0.00,,,0.00,weatherlink.com 1.10,2013-03-04 09:28:00,
2013-03-04 03:43:00,36.1,26.0,30.07,ENE,72,2.0,5.0,66,0.00,,,0.00,weatherlink.com 1.10,2013-03-04 09:43:00,
2013-03-04 03:58:00,36.3,26.0,30.07,East,79,2.0,5.0,66,0.00,,,0.00,weatherlink.com 1.10,2013-03-04 09:58:00,
2013-03-04 04:14:00,36.3,26.0,30.07,NE,56,1.0,7.0,66,0.00,,,0.00,weatherlink.com 1.10,2013-03-04 10:14:00,
2013-03-04 04:29:00,36.4,26.0,30.07,East,86,0.0,6.0,67,0.00,,,0.00,weatherlink.com 1.10,2013-03-04 10:29:00,
2013-03-04 04:44:00,36.3,26.0,30.07,East,92,1.0,5.0,66,0.00,,,0.00,weatherlink.com 1.10,2013-03-04 10:44:00,
2013-03-04 04:59:00,36.3,25.0,30.07,ENE,74,2.0,6.0,65,0.00,,,0.00,weatherlink.com 1.10,2013-03-04 10:59:00,
2013-03-04 05:14:00,36.3,25.0,30.07,East,86,1.0,6.0,64,0.00,,,0.00,weatherlink.com 1.10,2013-03-04 11:14:00,
2013-03-04 05:29:00,36.3,25.0,30.08,East,94,1.0,6.0,64,0.00,,,0.00,weatherlink.com 1.10,2013-03-04 11:29:00,
2013-03-04 05:44:00,36.2,25.0,30.07,ENE,61,2.0,5.0,65,0.00,,,0.00,weatherlink.com 1.10,2013-03-04 11:44:00,
2013-03-04 05:59:00,36.1,25.0,30.07,East,86,6.0,6.0,65,0.00,,,0.00,weatherlink.com 1.10,2013-03-04 11:59:00,
2013-03-04 06:14:00,36.1,25.0,30.06,East,81,3.0,7.0,65,0.00,,,0.00,weatherlink.com 1.10,2013-03-04 12:14:00,
2013-03-04 06:29:00,36.0,25.0,30.05,ENE,73,3.0,7.0,65,0.00,,,0.00,weatherlink.com 1.10,2013-03-04 12:29:00,
2013-03-04 06:44:00,36.2,25.0,30.05,NE,46,5.0,8.0,64,0.00,,,0.00,weatherlink.com 1.10,2013-03-04 12:44:00,
2013-03-04 06:59:00,36.4,25.0,30.05,ENE,76,2.0,9.0,63,0.00,,,0.00,weatherlink.com 1.10,2013-03-04 12:59:00,
2013-03-04 07:14:00,36.8,24.0,30.05,ENE,62,3.0,9.0,61,0.00,,,0.00,weatherlink.com 1.10,2013-03-04 13:14:00,
2013-03-04 07:29:00,37.3,24.0,30.05,ESE,109,4.0,9.0,60,0.00,,,0.00,weatherlink.com 1.10,2013-03-04 13:29:00,
2013-03-04 07:44:00,37.8,25.0,30.05,ESE,102,3.0,6.0,60,0.00,,,0.00,weatherlink.com 1.10,2013-03-04 13:44:00,
2013-03-04 07:59:00,38.3,25.0,30.05,ESE,111,3.0,9.0,58,0.00,,,0.00,weatherlink.com 1.10,2013-03-04 13:59:00,
2013-03-04 08:14:00,38.9,25.0,30.05,SE,128,2.0,8.0,58,0.00,,,0.00,weatherlink.com 1.10,2013-03-04 14:14:00,
2013-03-04 08:29:00,39.7,25.0,30.05,ESE,123,1.0,9.0,57,0.00,,,0.00,weatherlink.com 1.10,2013-03-04 14:29:00,
2013-03-04 08:44:00,40.6,25.0,30.04,ESE,121,5.0,7.0,55,0.00,,,0.00,weatherlink.com 1.10,2013-03-04 14:44:00,
2013-03-04 08:59:00,41.3,26.0,30.04,ESE,107,1.0,7.0,56,0.00,,,0.00,weatherlink.com 1.10,2013-03-04 14:59:00,
2013-03-04 09:14:00,42.5,26.0,30.02,ESE,107,5.0,8.0,53,0.00,,,0.00,weatherlink.com 1.10,2013-03-04 15:14:00,
2013-03-04 09:29:00,43.2,26.0,30.02,ESE,109,4.0,12.0,51,0.00,,,0.00,weatherlink.com 1.10,2013-03-04 15:29:00,
2013-03-04 09:44:00,44.3,27.0,30.01,ESE,121,2.0,10.0,51,0.00,,,0.00,weatherlink.com 1.10,2013-03-04 15:44:00,
2013-03-04 09:59:00,45.6,28.0,30.00,SE,134,1.0,10.0,50,0.00,,,0.00,weatherlink.com 1.10,2013-03-04 15:59:00,
2013-03-04 10:14:00,46.4,27.0,29.99,SE,125,6.0,12.0,47,0.00,,,0.00,weatherlink.com 1.10,2013-03-04 16:14:00,
2013-03-04 10:29:00,46.7,27.0,29.98,SE,141,4.0,11.0,46,0.00,,,0.00,weatherlink.com 1.10,2013-03-04 16:29:00,
2013-03-04 10:45:00,47.4,28.0,29.97,ESE,107,2.0,11.0,48,0.00,,,0.00,weatherlink.com 1.10,2013-03-04 16:45:00,
2013-03-04 11:00:00,48.8,29.0,29.96,ESE,121,5.0,11.0,46,0.00,,,0.00,weatherlink.com 1.10,2013-03-04 17:00:00,
2013-03-04 11:15:00,50.2,28.0,29.95,ESE,123,3.0,14.0,43,0.00,,,0.00,weatherlink.com 1.10,2013-03-04 17:15:00,
2013-03-04 11:30:00,50.1,28.0,29.93,SE,139,3.0,14.0,43,0.00,,,0.00,weatherlink.com 1.10,2013-03-04 17:30:00,
2013-03-04 11:45:00,50.5,30.0,29.92,ESE,119,7.0,12.0,46,0.00,,,0.00,weatherlink.com 1.10,2013-03-04 17:45:00,
2013-03-04 12:00:00,51.9,31.0,29.91,ESE,117,5.0,11.0,45,0.00,,,0.00,weatherlink.com 1.10,2013-03-04 18:00:00,
2013-03-04 12:15:00,54.0,31.0,29.90,ESE,110,4.0,13.0,42,0.00,,,0.00,weatherlink.com 1.10,2013-03-04 18:15:00,
2013-03-04 12:30:00,55.0,31.0,29.89,SSE,166,5.0,10.0,41,0.00,,,0.00,weatherlink.com 1.10,2013-03-04 18:30:00,
2013-03-04 12:45:00,55.0,31.0,29.89,ESE,122,3.0,11.0,40,0.00,,,0.00,weatherlink.com 1.10,2013-03-04 18:45:00,
2013-03-04 13:00:00,55.4,32.0,29.87,SE,144,3.0,9.0,41,0.00,,,0.00,weatherlink.com 1.10,2013-03-04 19:00:00,
2013-03-04 13:15:00,56.9,33.0,29.85,SE,129,6.0,10.0,40,0.00,,,0.00,weatherlink.com 1.10,2013-03-04 19:15:00,
2013-03-04 13:30:00,57.7,33.0,29.85,ESE,120,6.0,10.0,39,0.00,,,0.00,weatherlink.com 1.10,2013-03-04 19:30:00,
2013-03-04 13:45:00,58.4,33.0,29.83,SE,136,3.0,13.0,38,0.00,,,0.00,weatherlink.com 1.10,2013-03-04 19:45:00,
2013-03-04 14:00:00,58.2,32.0,29.83,SE,130,3.0,12.0,38,0.00,,,0.00,weatherlink.com 1.10,2013-03-04 20:00:00,
2013-03-04 14:15:00,57.6,33.0,29.82,SE,136,5.0,12.0,40,0.00,,,0.00,weatherlink.com 1.10,2013-03-04 20:15:00,
2013-03-04 14:30:00,58.0,33.0,29.81,SE,126,4.0,8.0,39,0.00,,,0.00,weatherlink.com 1.10,2013-03-04 20:30:00,
2013-03-04 14:45:00,57.3,34.0,29.81,SSE,149,8.0,10.0,41,0.00,,,0.00,weatherlink.com 1.10,2013-03-04 20:45:00,
2013-03-04 15:00:00,56.7,32.0,29.81,ESE,123,3.0,7.0,40,0.00,,,0.00,weatherlink.com 1.10,2013-03-04 21:00:00,
2013-03-04 15:15:00,56.1,32.0,29.81,East,96,1.0,5.0,41,0.00,,,0.00,weatherlink.com 1.10,2013-03-04 21:15:00,
2013-03-04 15:30:00,55.8,33.0,29.81,ESE,112,2.0,5.0,42,0.00,,,0.00,weatherlink.com 1.10,2013-03-04 21:30:00,
2013-03-04 15:45:00,55.7,33.0,29.81,ESE,113,4.0,7.0,42,0.00,,,0.00,weatherlink.com 1.10,2013-03-04 21:45:00,
2013-03-04 16:00:00,55.7,33.0,29.80,ENE,74,1.0,6.0,42,0.00,,,0.00,weatherlink.com 1.10,2013-03-04 22:00:00,
2013-03-04 16:15:00,55.7,33.0,29.80,ESE,111,1.0,7.0,42,0.00,,,0.00,weatherlink.com 1.10,2013-03-04 22:15:00,
2013-03-04 16:30:00,55.5,34.0,29.80,ENE,67,3.0,6.0,44,0.00,,,0.00,weatherlink.com 1.10,2013-03-04 22:30:00,
2013-03-04 16:45:00,55.1,34.0,29.80,East,97,3.0,4.0,45,0.00,,,0.00,weatherlink.com 1.10,2013-03-04 22:45:00,
2013-03-04 17:00:00,55.0,34.0,29.79,East,90,1.0,4.0,45,0.00,,,0.00,weatherlink.com 1.10,2013-03-04 23:00:00,
2013-03-04 17:15:00,55.1,34.0,29.79,ENE,61,1.0,4.0,46,0.00,,,0.00,weatherlink.com 1.10,2013-03-04 23:15:00,
2013-03-04 17:30:00,55.1,36.0,29.80,ENE,61,1.0,4.0,48,0.00,,,0.00,weatherlink.com 1.10,2013-03-04 23:30:00,
2013-03-04 17:45:00,54.5,35.0,29.80,ENE,61,1.0,2.0,49,0.00,,,0.00,weatherlink.com 1.10,2013-03-04 23:45:00,
2013-03-04 18:01:00,53.6,36.0,29.81,NE,46,1.0,3.0,51,0.00,,,0.00,weatherlink.com 1.10,2013-03-05 00:01:00,
2013-03-04 18:16:00,52.8,38.0,29.81,NE,47,1.0,2.0,57,0.00,,,0.00,weatherlink.com 1.10,2013-03-05 00:16:00,
2013-03-04 18:31:00,52.4,36.0,29.82,NE,49,0.0,3.0,54,0.00,,,0.00,weatherlink.com 1.10,2013-03-05 00:31:00,
2013-03-04 19:04:00,53.6,36.0,29.82,ENE,71,1.0,4.0,51,0.00,,,0.00,weatherlink.com 1.10,2013-03-05 01:04:00,
2013-03-04 19:16:00,53.8,35.0,29.82,NE,53,1.0,2.0,50,0.00,,,0.00,weatherlink.com 1.10,2013-03-05 01:16:00,
2013-03-04 19:31:00,53.0,36.0,29.82,NE,53,2.0,3.0,53,0.00,,,0.00,weatherlink.com 1.10,2013-03-05 01:31:00,
2013-03-04 19:46:00,51.8,38.0,29.82,NE,42,0.0,3.0,59,0.00,,,0.00,weatherlink.com 1.10,2013-03-05 01:46:00,
2013-03-04 20:01:00,51.0,37.0,29.82,NE,42,1.0,1.0,60,0.00,,,0.00,weatherlink.com 1.10,2013-03-05 02:01:00,
2013-03-04 20:16:00,50.7,37.0,29.82,NE,42,1.0,2.0,59,0.00,,,0.00,weatherlink.com 1.10,2013-03-05 02:16:00,
2013-03-04 20:31:00,50.5,37.0,29.81,NE,52,0.0,2.0,61,0.00,,,0.00,weatherlink.com 1.10,2013-03-05 02:31:00,
2013-03-04 20:46:00,50.6,38.0,29.81,NE,52,1.0,1.0,63,0.00,,,0.00,weatherlink.com 1.10,2013-03-05 02:46:00,
2013-03-04 21:01:00,50.1,40.0,29.81,NE,52,0.0,1.0,69,0.00,,,0.00,weatherlink.com 1.10,2013-03-05 03:01:00,
2013-03-04 21:16:00,49.2,42.0,29.82,NE,54,1.0,3.0,75,0.00,,,0.00,weatherlink.com 1.10,2013-03-05 03:16:00,
2013-03-04 21:31:00,48.6,40.0,29.81,NE,55,0.0,0.0,73,0.00,,,0.00,weatherlink.com 1.10,2013-03-05 03:31:00,
2013-03-04 21:46:00,48.3,40.0,29.81,NE,50,1.0,2.0,73,0.00,,,0.00,weatherlink.com 1.10,2013-03-05 03:46:00,
2013-03-04 22:01:00,48.3,41.0,29.82,NE,50,0.0,0.0,76,0.00,,,0.00,weatherlink.com 1.10,2013-03-05 04:01:00,
2013-03-04 22:16:00,48.0,41.0,29.80,NE,56,0.0,3.0,76,0.00,,,0.00,weatherlink.com 1.10,2013-03-05 04:16:00,
2013-03-04 22:32:00,47.9,42.0,29.79,ENE,65,2.0,4.0,79,0.01,,,0.01,weatherlink.com 1.10,2013-03-05 04:32:00,
2013-03-04 22:46:00,47.5,42.0,29.79,ENE,71,0.0,2.0,82,0.01,,,0.01,weatherlink.com 1.10,2013-03-05 04:46:00,
2013-03-04 23:01:00,47.6,42.0,29.80,ENE,68,0.0,2.0,80,0.01,,,0.01,weatherlink.com 1.10,2013-03-05 05:01:00,
2013-03-04 23:16:00,47.0,43.0,29.80,ENE,68,0.0,2.0,87,0.02,,,0.02,weatherlink.com 1.10,2013-03-05 05:16:00,
2013-03-04 23:31:00,45.9,43.0,29.79,ENE,69,0.0,1.0,90,0.03,,,0.04,weatherlink.com 1.10,2013-03-05 05:31:00,
2013-03-04 23:46:00,45.6,44.0,29.79,ENE,69,0.0,1.0,92,0.03,,,0.04,weatherlink.com 1.10,2013-03-05 05:46:00,